STARLINK-1272, 45386

Orbit data source: Space-Track

STARLINK-1272, 45386 is a payload satellite owned by SpaceX/Seattle (US) in LEO that was launched on Wed, 18 Mar 2020 UTC via an FALCON 9 launch vehicle from the Air Force Eastern Test Range (AFETR). Payload-class satellites include a variety of spacecraft equipped with specific instruments for various scientific and technological missions. These include communications satellites like Starlink; space stations such as the ISS; scientific satellites like the Hubble; Earth observation satellites from companies like Planet Labs, Umbra, and HawkEye 360; GPS; miniature CubeSats for education and research; and military/defense satellites.

Loading next visibility...
Identifier
45386, 2020-019AC
Orbit
LEO
Last TLE update
16 hours ago
Origin
Manufacturer
SpaceX/Seattle
Mission
Operational Commercial Communications
Bus & Motor
STARLINK, Unknown motor
Mass
260 kg wet, ~248 kg dry
Launch date (UTC)
2020-03-18 (5 years ago)
Launch vehicle
FALCON 9
Launch site
Air Force Eastern Test Range (AFETR)
Object type
Payload
Rocket body
Debris
Shape & HBR
Box + 1 Pan, 8.86 m
Radar Cross Section
13.562 m², Large (>1 m²)

Expand to show TLE details & history

TLE from 16 hours ago
0 STARLINK-1272
1 45386U 20019AC  25181.75625604  .00000666  00000-0  63603-4 0  9990
2 45386  53.0541 197.5919 0001145  86.8384 273.2736 15.06394407292030
Epoch: 2025-06-30T18:09Z
TLE epoch observation values (Epoch: 2025-06-30T18:09:00.521Z)
Latitude
-0.00004°
Longitude
6.2782°
Altitude
548.063 km
Speed
7.589 km/s
True Right ascension
13h 10m 22s
True Declination
0° 00' 00"
Sunlit
Object was in daylight at epoch
Visualization orbit readout
Latitude
41.86053°
Longitude
45.3327°
Altitude
550.539 km
Speed
7.592 km/s
Apparent Right ascension
12h 58m 00s
Apparent Declination
4° 09' 44"
Sunlit
Object is in daylight
Visualization observer readout
Local Sidereal Time
21:57:46
Azimuth
305.724° NW
Elevation
-29.59°
Doppler factor
1
Orbital elements
Apogee altitude
548.292 km
Perigee altitude
546.706 km
Semi-major axis
6,925.636 km
Eccentricity
0.00011
Inclination
53.0541°
RAAN
197.5919°
Arg. of periapsis
86.8384°
True anomaly
Unknown
Mean anomaly
273.2736°
Eccentric anomaly
Unknown
Mean motion
3.76577 °/min
Orbital period
95.6 mins
BSTAR
0.000063603
Loading maneuver chart data...
Loading SW <> Apogee altitude chart data...
Loading historical data...
Loading historical data...
Loading historical data...
Loading historical data...
Loading historical data...
Loading historical data...
Loading historical data...

STARLINK-1272 Visibility forecast

Observer location: undefined°, undefined°

Span
Click to sort rows by Start time (UTC) header in descending order
Start Az.
Max El. time (UTC)
Max El. Az.
Max El.
End time (UTC)
End Az.
7 mins2025-07-01 10:34:20.458Z312.136° NW2025-07-01 10:37:20.458Z336.507° NNW43.244°2025-07-01 10:41:20.458Z126.677° SE
6 mins2025-07-02 03:47:20.458Z238.556° WSW2025-07-02 03:50:20.458Z15.105° NNE42.218°2025-07-02 03:53:20.458Z46.475° ENE
4 mins2025-07-02 05:28:20.458Z310.518° NW2025-07-02 05:30:20.458Z348.044° N18.074°2025-07-02 05:32:20.458Z20.818° NNE
5 mins2025-07-02 08:49:20.458Z341.471° N2025-07-02 08:51:20.458Z18.829° NNE21.334°2025-07-02 08:54:20.458Z72.662° E
|